KLM836 WADD-WSSS

Flight info

Callsign KLM836
Flight time 2h 17m
Altitude 38000
Route BORGI DCT UDONO M635 SURGA T23 UGEBO UGEBO1B
Aircraft B77W/H-SDE1E2E3FGHIJ2J3J4J5M1RWXY/LB1D1

Departure

Time 2026-05-07 14:35
Airport Denpasar I Gusti Ngurah Rai International Airport (WADD)

Arrival

Time 2026-05-07 16:53
Airport Singapore Changi Airport (WSSS)
Time Latitude Longitude Altitude Speed Heading
2026-05-07 14:26 -8.74563 115.16672 38 ft 0 kts 358°
2026-05-07 14:34 -8.74708 115.16019 38 ft 385 kts 271°
2026-05-07 14:34 -8.74899 115.15416 33 ft 0 kts 87°
2026-05-07 14:35 -8.74898 115.15454 34 ft 25 kts 88°
2026-05-07 14:35 -8.74879 115.15943 34 ft 112 kts 88°
2026-05-07 14:35 -8.74854 115.16980 111 ft 171 kts 93°
2026-05-07 14:35 -8.74843 115.18207 804 ft 174 kts 89°
2026-05-07 14:36 -8.74788 115.19405 1700 ft 173 kts 89°
2026-05-07 14:36 -8.74726 115.20682 2238 ft 195 kts 89°
2026-05-07 14:36 -8.74657 115.22165 2432 ft 225 kts 89°
2026-05-07 14:36 -8.74581 115.23812 2904 ft 240 kts 89°
2026-05-07 14:37 -8.74504 115.25537 3699 ft 252 kts 88°
2026-05-07 14:37 -8.74346 115.29126 5512 ft 263 kts 89°
2026-05-07 14:37 -8.74266 115.31000 6343 ft 271 kts 89°
2026-05-07 14:38 -8.74185 115.32914 7221 ft 273 kts 89°
2026-05-07 14:38 -8.74104 115.34849 8061 ft 278 kts 88°
2026-05-07 14:38 -8.74022 115.36830 8864 ft 284 kts 88°
2026-05-07 14:38 -8.73938 115.38835 9756 ft 287 kts 87°
2026-05-07 14:39 -8.73853 115.40870 10462 ft 295 kts 88°
2026-05-07 14:39 -8.73762 115.43032 10748 ft 322 kts 88°
2026-05-07 14:39 -8.73664 115.45397 10966 ft 351 kts 88°
2026-05-07 14:39 -8.73552 115.47947 11219 ft 372 kts 86°
2026-05-07 14:40 -8.72975 115.50545 11627 ft 387 kts 68°
2026-05-07 14:40 -8.71619 115.52920 12441 ft 395 kts 51°
2026-05-07 14:40 -8.69708 115.54930 13248 ft 400 kts 44°
2026-05-07 14:40 -8.67669 115.56897 13978 ft 409 kts 44°
2026-05-07 14:41 -8.65602 115.58895 14752 ft 414 kts 44°
2026-05-07 14:41 -8.63550 115.60907 15528 ft 419 kts 44°
2026-05-07 14:41 -8.61462 115.62986 16317 ft 423 kts 45°
2026-05-07 14:41 -8.59354 115.65099 17042 ft 430 kts 45°
2026-05-07 14:42 -8.57190 115.67188 17654 ft 431 kts 38°
2026-05-07 14:42 -8.54548 115.68631 18213 ft 437 kts 17°
2026-05-07 14:42 -8.51555 115.69180 18826 ft 439 kts 360°
2026-05-07 14:42 -8.48533 115.68766 19502 ft 438 kts 339°
2026-05-07 14:43 -8.45890 115.67277 20170 ft 437 kts 317°
2026-05-07 14:43 -8.43992 115.64917 20839 ft 435 kts 296°
2026-05-07 14:43 -8.43080 115.62010 21418 ft 438 kts 275°
2026-05-07 14:43 -8.43301 115.58942 22012 ft 442 kts 254°
2026-05-07 14:44 -8.44307 115.56019 22392 ft 441 kts 253°
2026-05-07 14:44 -8.44978 115.52955 22807 ft 450 kts 262°
2026-05-07 14:44 -8.45269 115.49802 23513 ft 452 kts 266°
2026-05-07 14:44 -8.45371 115.46622 24056 ft 455 kts 269°
2026-05-07 14:45 -8.45413 115.43412 24513 ft 459 kts 269°
2026-05-07 14:45 -8.45458 115.40177 25000 ft 463 kts 269°
2026-05-07 14:45 -8.45528 115.36962 25511 ft 465 kts 268°
2026-05-07 14:45 -8.45622 115.33689 25993 ft 468 kts 268°
2026-05-07 14:46 -8.45726 115.30384 26409 ft 473 kts 268°
2026-05-07 14:46 -8.45832 115.27054 26863 ft 476 kts 268°
2026-05-07 14:46 -8.45941 115.23709 27341 ft 478 kts 268°
2026-05-07 14:46 -8.46051 115.20343 27763 ft 481 kts 268°
2026-05-07 14:47 -8.46162 115.16948 28124 ft 485 kts 268°
2026-05-07 14:47 -8.46272 115.13535 28514 ft 488 kts 268°
2026-05-07 14:47 -8.46382 115.10107 28919 ft 490 kts 268°
2026-05-07 14:47 -8.46493 115.06658 29242 ft 492 kts 268°
2026-05-07 14:48 -8.46313 115.03209 29386 ft 496 kts 281°
2026-05-07 14:48 -8.45166 114.99915 29573 ft 501 kts 297°
2026-05-07 14:48 -8.43195 114.97013 29966 ft 503 kts 310°
2026-05-07 14:48 -8.40645 114.94605 30375 ft 503 kts 324°
2026-05-07 14:49 -8.37640 114.92802 30836 ft 501 kts 330°
2026-05-07 14:49 -8.34598 114.91096 31305 ft 499 kts 329°
2026-05-07 14:49 -8.31593 114.89362 31780 ft 496 kts 328°
2026-05-07 14:49 -8.28615 114.87610 32241 ft 495 kts 328°
2026-05-07 14:50 -8.25649 114.85848 32717 ft 493 kts 328°
2026-05-07 14:50 -8.22737 114.84113 33145 ft 492 kts 328°
2026-05-07 14:50 -8.19750 114.82335 33586 ft 491 kts 328°
2026-05-07 14:50 -8.16816 114.80591 34043 ft 489 kts 328°
2026-05-07 14:51 -8.13921 114.78873 34458 ft 488 kts 328°
2026-05-07 14:51 -8.10995 114.77138 34804 ft 487 kts 328°
2026-05-07 14:51 -8.08077 114.75408 35162 ft 487 kts 328°
2026-05-07 14:51 -8.05158 114.73678 35515 ft 486 kts 328°
2026-05-07 14:52 -8.02239 114.71948 35892 ft 485 kts 328°
2026-05-07 14:52 -7.99329 114.70224 36239 ft 485 kts 328°
2026-05-07 14:52 -7.96422 114.68501 36589 ft 484 kts 328°
2026-05-07 14:52 -7.93521 114.66783 36942 ft 483 kts 328°
2026-05-07 14:53 -7.90623 114.65066 37320 ft 482 kts 328°
2026-05-07 14:53 -7.87721 114.63390 37730 ft 480 kts 329°
2026-05-07 14:53 -7.84782 114.61789 37934 ft 482 kts 330°
2026-05-07 14:53 -7.81797 114.60199 37978 ft 486 kts 330°
2026-05-07 14:54 -7.75833 114.57010 37986 ft 483 kts 330°
2026-05-07 14:54 -7.69961 114.53823 37990 ft 478 kts 330°
2026-05-07 14:55 -7.64532 114.50064 37920 ft 474 kts 309°
2026-05-07 14:55 -7.62667 114.47336 37898 ft 474 kts 294°
2026-05-07 14:55 -7.61507 114.44232 37923 ft 472 kts 288°
2026-05-07 14:56 -7.59380 114.37979 37903 ft 477 kts 289°
2026-05-07 14:56 -7.57008 114.31719 37884 ft 478 kts 296°
2026-05-07 14:57 -7.55169 114.28917 37901 ft 481 kts 310°
2026-05-07 14:57 -7.52656 114.26699 37891 ft 480 kts 323°
2026-05-07 14:57 -7.47141 114.22876 37898 ft 482 kts 323°
2026-05-07 14:58 -7.41649 114.18979 37892 ft 483 kts 323°
2026-05-07 14:58 -7.36190 114.15033 37893 ft 483 kts 322°
2026-05-07 14:59 -7.30743 114.11078 37888 ft 482 kts 323°
2026-05-07 14:59 -7.25304 114.07133 37885 ft 482 kts 322°
2026-05-07 15:00 -7.19860 114.03189 37891 ft 482 kts 323°
2026-05-07 15:00 -7.14453 113.99274 37896 ft 482 kts 323°
2026-05-07 15:01 -7.08968 113.95303 37892 ft 483 kts 323°
2026-05-07 15:01 -7.03542 113.91375 37888 ft 484 kts 323°
2026-05-07 15:02 -6.98071 113.87417 37892 ft 484 kts 323°
2026-05-07 15:02 -6.92600 113.83459 37888 ft 484 kts 322°
2026-05-07 15:03 -6.87126 113.79497 37890 ft 484 kts 322°
2026-05-07 15:03 -6.81649 113.75533 37892 ft 484 kts 322°
2026-05-07 15:04 -6.76175 113.71573 37887 ft 485 kts 323°
2026-05-07 15:04 -6.70695 113.67609 37890 ft 485 kts 323°
2026-05-07 15:05 -6.65211 113.63645 37889 ft 485 kts 322°
2026-05-07 15:05 -6.59761 113.59705 37888 ft 486 kts 323°
2026-05-07 15:06 -6.54270 113.55737 37884 ft 486 kts 322°
2026-05-07 15:06 -6.48775 113.51767 37886 ft 486 kts 323°
2026-05-07 15:07 -6.43287 113.47803 37886 ft 486 kts 322°
2026-05-07 15:07 -6.37795 113.43838 37886 ft 486 kts 322°
2026-05-07 15:08 -6.32304 113.39872 37887 ft 486 kts 323°
2026-05-07 15:08 -6.26867 113.35835 37885 ft 485 kts 318°
2026-05-07 15:09 -6.22146 113.31037 37884 ft 482 kts 307°
2026-05-07 15:09 -6.18061 113.25699 37893 ft 482 kts 306°
2026-05-07 15:10 -6.13997 113.20324 37890 ft 483 kts 306°
2026-05-07 15:10 -6.09910 113.14965 37890 ft 483 kts 306°
2026-05-07 15:11 -6.05808 113.09622 37881 ft 483 kts 306°
2026-05-07 15:11 -6.01700 113.04282 37888 ft 483 kts 306°
2026-05-07 15:12 -5.97593 112.98944 37888 ft 483 kts 306°
2026-05-07 15:12 -5.93516 112.93646 37888 ft 483 kts 306°
2026-05-07 15:13 -5.89410 112.88309 37892 ft 483 kts 306°
2026-05-07 15:13 -5.85300 112.82969 37888 ft 483 kts 306°
2026-05-07 15:14 -5.81191 112.77631 37887 ft 483 kts 306°
2026-05-07 15:14 -5.77771 112.73191 37886 ft 483 kts 306°
2026-05-07 15:15 -5.73655 112.67848 37893 ft 483 kts 306°
2026-05-07 15:15 -5.69540 112.62506 37882 ft 483 kts 306°
2026-05-07 15:16 -5.65423 112.57165 37890 ft 483 kts 306°
2026-05-07 15:16 -5.61306 112.51824 37880 ft 483 kts 306°
2026-05-07 15:17 -5.57211 112.46513 37885 ft 484 kts 307°
2026-05-07 15:17 -5.53094 112.41175 37883 ft 484 kts 306°
2026-05-07 15:18 -5.48974 112.35835 37883 ft 484 kts 306°
2026-05-07 15:18 -5.44853 112.30494 37884 ft 484 kts 306°
2026-05-07 15:19 -5.40731 112.25154 37878 ft 483 kts 306°
2026-05-07 15:19 -5.36612 112.19819 37888 ft 483 kts 306°
2026-05-07 15:20 -5.32493 112.14485 37883 ft 483 kts 306°
2026-05-07 15:20 -5.28376 112.09154 37885 ft 483 kts 307°
2026-05-07 15:21 -5.24288 112.03863 37885 ft 483 kts 307°
2026-05-07 15:21 -5.20171 111.98537 37881 ft 483 kts 307°
2026-05-07 15:22 -5.16050 111.93205 37878 ft 483 kts 307°
2026-05-07 15:22 -5.11929 111.87876 37882 ft 483 kts 307°
2026-05-07 15:23 -5.07809 111.82548 37889 ft 483 kts 306°
2026-05-07 15:23 -5.03689 111.77221 37876 ft 483 kts 307°
2026-05-07 15:24 -4.99570 111.71897 37878 ft 483 kts 307°
2026-05-07 15:24 -4.95453 111.66578 37881 ft 482 kts 307°
2026-05-07 15:25 -4.91333 111.61255 37871 ft 483 kts 307°
2026-05-07 15:25 -4.87197 111.55913 37880 ft 484 kts 307°
2026-05-07 15:26 -4.83087 111.50605 37882 ft 485 kts 307°
2026-05-07 15:26 -4.78938 111.45248 37875 ft 486 kts 307°
2026-05-07 15:27 -4.74788 111.39891 37880 ft 487 kts 307°
2026-05-07 15:27 -4.70632 111.34528 37874 ft 487 kts 307°
2026-05-07 15:28 -4.66480 111.29169 37873 ft 486 kts 307°
2026-05-07 15:28 -4.62328 111.23813 37874 ft 486 kts 307°
2026-05-07 15:29 -4.58185 111.18452 37869 ft 487 kts 307°
2026-05-07 15:29 -4.54045 111.13071 37882 ft 488 kts 307°
2026-05-07 15:30 -4.49901 111.07686 37875 ft 488 kts 308°
2026-05-07 15:30 -4.45749 111.02293 37878 ft 488 kts 308°
2026-05-07 15:31 -4.41627 110.96943 37873 ft 488 kts 308°
2026-05-07 15:31 -4.37474 110.91554 37872 ft 488 kts 308°
2026-05-07 15:32 -4.33326 110.86172 37875 ft 488 kts 308°
2026-05-07 15:32 -4.29151 110.80756 37873 ft 488 kts 308°
2026-05-07 15:33 -4.25027 110.75407 37878 ft 488 kts 308°
2026-05-07 15:33 -4.20883 110.70033 37872 ft 487 kts 308°
2026-05-07 15:34 -4.16730 110.64649 37875 ft 487 kts 308°
2026-05-07 15:34 -4.12586 110.59277 37875 ft 487 kts 308°
2026-05-07 15:35 -4.08440 110.53903 37873 ft 487 kts 308°
2026-05-07 15:35 -4.04296 110.48533 37875 ft 487 kts 308°
2026-05-07 15:36 -4.00152 110.43163 37875 ft 487 kts 308°
2026-05-07 15:36 -3.96004 110.37792 37874 ft 487 kts 309°
2026-05-07 15:37 -3.91664 110.32590 37873 ft 487 kts 312°
2026-05-07 15:37 -3.87223 110.27522 37876 ft 487 kts 312°
2026-05-07 15:38 -3.82769 110.22403 37870 ft 488 kts 312°
2026-05-07 15:38 -3.78333 110.17249 37870 ft 488 kts 312°
2026-05-07 15:39 -3.73907 110.12085 37871 ft 488 kts 312°
2026-05-07 15:39 -3.69479 110.06920 37871 ft 488 kts 311°
2026-05-07 15:40 -3.65054 110.01762 37871 ft 488 kts 312°
2026-05-07 15:40 -3.60622 109.96597 37872 ft 488 kts 312°
2026-05-07 15:41 -3.56198 109.91445 37868 ft 488 kts 311°
2026-05-07 15:41 -3.51773 109.86291 37871 ft 488 kts 311°
2026-05-07 15:42 -3.47351 109.81141 37871 ft 487 kts 311°
2026-05-07 15:42 -3.42963 109.76031 37874 ft 487 kts 312°
2026-05-07 15:43 -3.38547 109.70890 37874 ft 486 kts 311°
2026-05-07 15:43 -3.34141 109.65761 37874 ft 486 kts 312°
2026-05-07 15:44 -3.29733 109.60632 37874 ft 485 kts 312°
2026-05-07 15:44 -3.25331 109.55509 37873 ft 485 kts 312°
2026-05-07 15:45 -3.20932 109.50390 37872 ft 485 kts 312°
2026-05-07 15:45 -3.16532 109.45271 37871 ft 485 kts 311°
2026-05-07 15:46 -3.09915 109.37575 37870 ft 487 kts 312°
2026-05-07 15:47 -3.05519 109.32462 37877 ft 488 kts 313°
2026-05-07 15:47 -3.01086 109.27307 37878 ft 489 kts 313°
2026-05-07 15:48 -2.96631 109.22127 37869 ft 490 kts 312°
2026-05-07 15:48 -2.92180 109.16950 37870 ft 490 kts 313°
2026-05-07 15:49 -2.87728 109.11779 37870 ft 490 kts 312°
2026-05-07 15:49 -2.83264 109.06621 37867 ft 490 kts 312°
2026-05-07 15:50 -2.78794 109.01461 37874 ft 491 kts 313°
2026-05-07 15:50 -2.74322 108.96294 37872 ft 491 kts 313°
2026-05-07 15:51 -2.69881 108.91161 37868 ft 492 kts 313°
2026-05-07 15:51 -2.65402 108.85985 37875 ft 492 kts 312°
2026-05-07 15:52 -2.60918 108.80803 37873 ft 492 kts 313°
2026-05-07 15:52 -2.56435 108.75624 37870 ft 492 kts 312°
2026-05-07 15:53 -2.51961 108.70453 37861 ft 492 kts 312°
2026-05-07 15:53 -2.47470 108.65265 37871 ft 494 kts 312°
2026-05-07 15:54 -2.42969 108.60050 37879 ft 496 kts 312°
2026-05-07 15:54 -2.38449 108.54809 37874 ft 499 kts 312°
2026-05-07 15:55 -2.33911 108.49546 37874 ft 500 kts 312°
2026-05-07 15:55 -2.29394 108.44309 37874 ft 501 kts 312°
2026-05-07 15:56 -2.24845 108.39036 37870 ft 500 kts 312°
2026-05-07 15:56 -2.20307 108.33777 37869 ft 498 kts 312°
2026-05-07 15:57 -2.15793 108.28546 37869 ft 496 kts 311°
2026-05-07 15:57 -2.11293 108.23331 37865 ft 494 kts 312°
2026-05-07 15:58 -2.06810 108.18136 37875 ft 493 kts 311°
2026-05-07 15:58 -2.02337 108.12952 37863 ft 493 kts 312°
2026-05-07 15:59 -1.97862 108.07758 37877 ft 493 kts 311°
2026-05-07 15:59 -1.93375 108.02549 37876 ft 494 kts 311°
2026-05-07 16:00 -1.89646 107.98220 37867 ft 495 kts 311°
2026-05-07 16:00 -1.85150 107.93000 37877 ft 495 kts 311°
2026-05-07 16:01 -1.79921 107.86933 37878 ft 496 kts 311°
2026-05-07 16:01 -1.76153 107.82559 37870 ft 496 kts 311°
2026-05-07 16:02 -1.71649 107.77332 37875 ft 496 kts 311°
2026-05-07 16:02 -1.67178 107.72144 37873 ft 495 kts 311°
2026-05-07 16:03 -1.63543 107.67927 37874 ft 495 kts 311°
2026-05-07 16:03 -1.59068 107.62736 37879 ft 495 kts 311°
2026-05-07 16:04 -1.54575 107.57523 37878 ft 495 kts 311°
2026-05-07 16:04 -1.50086 107.52315 37872 ft 494 kts 311°
2026-05-07 16:05 -1.45599 107.47109 37875 ft 494 kts 311°
2026-05-07 16:05 -1.41126 107.41920 37878 ft 492 kts 310°
2026-05-07 16:06 -1.36660 107.36740 37872 ft 491 kts 311°
2026-05-07 16:06 -1.32153 107.31621 37876 ft 490 kts 312°
2026-05-07 16:07 -1.27614 107.26537 37876 ft 490 kts 312°
2026-05-07 16:07 -1.23088 107.21457 37876 ft 490 kts 312°
2026-05-07 16:08 -1.18562 107.16362 37879 ft 490 kts 311°
2026-05-07 16:08 -1.14041 107.11268 37872 ft 490 kts 312°
2026-05-07 16:09 -1.09514 107.06168 37873 ft 491 kts 311°
2026-05-07 16:09 -1.05015 107.01099 37875 ft 490 kts 311°
2026-05-07 16:10 -1.00484 106.95996 37870 ft 490 kts 311°
2026-05-07 16:10 -0.95950 106.90889 37873 ft 490 kts 311°
2026-05-07 16:11 -0.91418 106.85785 37872 ft 491 kts 311°
2026-05-07 16:11 -0.86886 106.80680 37877 ft 491 kts 311°
2026-05-07 16:12 -0.82351 106.75573 37875 ft 491 kts 311°
2026-05-07 16:12 -0.77852 106.70506 37872 ft 491 kts 311°
2026-05-07 16:13 -0.73318 106.65399 37878 ft 491 kts 312°
2026-05-07 16:13 -0.68784 106.60293 37873 ft 491 kts 311°
2026-05-07 16:14 -0.64250 106.55187 37875 ft 491 kts 311°
2026-05-07 16:14 -0.59532 106.50247 37877 ft 491 kts 317°
2026-05-07 16:15 -0.54412 106.45720 37878 ft 492 kts 319°
2026-05-07 16:15 -0.49257 106.41215 37882 ft 492 kts 319°
2026-05-07 16:16 -0.44117 106.36681 37871 ft 492 kts 318°
2026-05-07 16:16 -0.38996 106.32134 37872 ft 493 kts 319°
2026-05-07 16:17 -0.33872 106.27579 37873 ft 493 kts 318°
2026-05-07 16:17 -0.28782 106.23056 37879 ft 493 kts 318°
2026-05-07 16:18 -0.23631 106.18480 37871 ft 492 kts 318°
2026-05-07 16:18 -0.18512 106.13933 37869 ft 492 kts 318°
2026-05-07 16:19 -0.13400 106.09392 37877 ft 492 kts 318°
2026-05-07 16:19 -0.08290 106.04853 37875 ft 492 kts 318°
2026-05-07 16:20 -0.03213 106.00343 37875 ft 492 kts 318°
2026-05-07 16:20 0.01902 105.95800 37864 ft 492 kts 318°
2026-05-07 16:21 0.07022 105.91252 37871 ft 493 kts 318°
2026-05-07 16:21 0.12146 105.86701 37874 ft 494 kts 318°
2026-05-07 16:22 0.17280 105.82141 37882 ft 494 kts 318°
2026-05-07 16:22 0.22424 105.77572 37878 ft 495 kts 318°
2026-05-07 16:23 0.27563 105.73007 37871 ft 495 kts 318°
2026-05-07 16:23 0.32706 105.68438 37874 ft 494 kts 318°
2026-05-07 16:24 0.37852 105.63867 37689 ft 498 kts 318°
2026-05-07 16:24 0.40465 105.61545 36828 ft 506 kts 319°
2026-05-07 16:24 0.43093 105.59211 36045 ft 506 kts 319°
2026-05-07 16:24 0.45724 105.56873 35197 ft 507 kts 319°
2026-05-07 16:25 0.48366 105.54527 34268 ft 510 kts 319°
2026-05-07 16:25 0.51021 105.52168 33229 ft 513 kts 319°
2026-05-07 16:25 0.53697 105.49790 32175 ft 515 kts 319°
2026-05-07 16:25 0.56367 105.47418 31405 ft 512 kts 319°
2026-05-07 16:26 0.59014 105.45065 30731 ft 507 kts 319°
2026-05-07 16:26 0.61638 105.42734 30068 ft 502 kts 319°
2026-05-07 16:26 0.64276 105.40465 29318 ft 496 kts 324°
2026-05-07 16:26 0.66154 105.39191 28856 ft 492 kts 330°
2026-05-07 16:27 0.70118 105.36986 27974 ft 484 kts 333°
2026-05-07 16:27 0.73090 105.35433 27334 ft 479 kts 334°
2026-05-07 16:27 0.76027 105.33888 26695 ft 475 kts 333°
2026-05-07 16:27 0.78929 105.32326 26076 ft 472 kts 333°
2026-05-07 16:28 0.81794 105.30749 25439 ft 469 kts 332°
2026-05-07 16:28 0.84634 105.29164 24816 ft 466 kts 332°
2026-05-07 16:28 0.87452 105.27579 24193 ft 463 kts 332°
2026-05-07 16:28 0.90252 105.26002 23574 ft 461 kts 332°
2026-05-07 16:29 0.93003 105.24452 22874 ft 459 kts 332°
2026-05-07 16:29 0.95774 105.22893 22225 ft 455 kts 332°
2026-05-07 16:29 0.98520 105.21349 21613 ft 451 kts 332°
2026-05-07 16:29 1.01243 105.19819 20948 ft 448 kts 332°
2026-05-07 16:30 1.03928 105.18311 20706 ft 435 kts 333°
2026-05-07 16:30 1.06529 105.16849 20513 ft 423 kts 333°
2026-05-07 16:30 1.09059 105.15427 20342 ft 411 kts 333°
2026-05-07 16:30 1.11520 105.14045 20144 ft 400 kts 333°
2026-05-07 16:31 1.13909 105.12695 19991 ft 387 kts 330°
2026-05-07 16:31 1.15934 105.10982 19786 ft 381 kts 310°
2026-05-07 16:31 1.17214 105.08709 19464 ft 370 kts 291°
2026-05-07 16:31 1.17798 105.06206 19039 ft 372 kts 274°
2026-05-07 16:32 1.17822 105.03647 18637 ft 364 kts 269°
2026-05-07 16:32 1.17740 105.01143 18235 ft 357 kts 268°
2026-05-07 16:32 1.17645 104.98655 17817 ft 358 kts 268°
2026-05-07 16:32 1.17560 104.96168 17412 ft 358 kts 268°
2026-05-07 16:33 1.17488 104.93679 17019 ft 358 kts 269°
2026-05-07 16:33 1.17426 104.91198 16638 ft 357 kts 269°
2026-05-07 16:33 1.17371 104.88799 16374 ft 341 kts 269°
2026-05-07 16:33 1.17321 104.86478 16223 ft 328 kts 269°
2026-05-07 16:34 1.17274 104.84243 16079 ft 317 kts 269°
2026-05-07 16:34 1.17227 104.82039 15941 ft 308 kts 269°
2026-05-07 16:34 1.17182 104.79957 15772 ft 301 kts 269°
2026-05-07 16:34 1.17135 104.77878 15519 ft 297 kts 269°
2026-05-07 16:35 1.17088 104.75827 15290 ft 294 kts 269°
2026-05-07 16:35 1.17041 104.73792 15054 ft 293 kts 269°
2026-05-07 16:35 1.16994 104.71754 14818 ft 293 kts 269°
2026-05-07 16:35 1.16948 104.69718 14578 ft 294 kts 269°
2026-05-07 16:36 1.16901 104.67671 14337 ft 294 kts 269°
2026-05-07 16:36 1.16854 104.65628 14086 ft 294 kts 269°
2026-05-07 16:36 1.16807 104.63586 13832 ft 294 kts 269°
2026-05-07 16:36 1.16760 104.61545 13568 ft 292 kts 269°
2026-05-07 16:37 1.16714 104.59531 13296 ft 288 kts 269°
2026-05-07 16:37 1.16668 104.57543 13050 ft 284 kts 269°
2026-05-07 16:37 1.16623 104.55584 12785 ft 280 kts 269°
2026-05-07 16:37 1.16579 104.53645 12482 ft 279 kts 269°
2026-05-07 16:38 1.16534 104.51713 12174 ft 278 kts 269°
2026-05-07 16:38 1.16490 104.49789 11884 ft 276 kts 269°
2026-05-07 16:38 1.16446 104.47879 11597 ft 274 kts 269°
2026-05-07 16:38 1.16447 104.45986 11291 ft 269 kts 278°
2026-05-07 16:39 1.17092 104.44294 11027 ft 263 kts 304°
2026-05-07 16:39 1.18135 104.42784 10833 ft 266 kts 305°
2026-05-07 16:39 1.19194 104.41241 10632 ft 272 kts 305°
2026-05-07 16:39 1.20266 104.39671 10437 ft 273 kts 304°
2026-05-07 16:40 1.21335 104.38105 10233 ft 273 kts 304°
2026-05-07 16:40 1.22400 104.36543 10059 ft 271 kts 304°
2026-05-07 16:40 1.23458 104.34991 9876 ft 270 kts 304°
2026-05-07 16:40 1.24512 104.33443 9686 ft 268 kts 304°
2026-05-07 16:41 1.25560 104.31901 9469 ft 267 kts 304°
2026-05-07 16:41 1.26603 104.30368 9231 ft 267 kts 304°
2026-05-07 16:41 1.27642 104.28839 9027 ft 266 kts 304°
2026-05-07 16:41 1.28681 104.27310 8792 ft 265 kts 304°
2026-05-07 16:42 1.29712 104.25793 8577 ft 263 kts 304°
2026-05-07 16:42 1.30739 104.24283 8357 ft 262 kts 304°
2026-05-07 16:42 1.31759 104.22783 8141 ft 260 kts 304°
2026-05-07 16:42 1.32972 104.21492 7852 ft 254 kts 330°
2026-05-07 16:43 1.34611 104.20927 7665 ft 247 kts 349°
2026-05-07 16:43 1.36307 104.20577 7467 ft 251 kts 348°
2026-05-07 16:43 1.38034 104.20210 7312 ft 255 kts 348°
2026-05-07 16:43 1.39769 104.19842 7158 ft 254 kts 348°
2026-05-07 16:44 1.41489 104.19476 6916 ft 250 kts 348°
2026-05-07 16:44 1.43181 104.19116 6504 ft 248 kts 348°
2026-05-07 16:44 1.44860 104.18757 6136 ft 244 kts 348°
2026-05-07 16:44 1.46502 104.18406 5908 ft 240 kts 348°
2026-05-07 16:45 1.48115 104.18060 5713 ft 234 kts 348°
2026-05-07 16:45 1.49157 104.17837 5641 ft 227 kts 348°
2026-05-07 16:45 1.50676 104.17511 5462 ft 220 kts 348°
2026-05-07 16:45 1.52583 104.16943 5176 ft 211 kts 326°
2026-05-07 16:46 1.53337 104.16337 5098 ft 209 kts 318°
2026-05-07 16:46 1.54826 104.15081 4948 ft 214 kts 320°
2026-05-07 16:46 1.55984 104.14131 4813 ft 216 kts 320°
2026-05-07 16:46 1.56767 104.13489 4714 ft 215 kts 320°
2026-05-07 16:47 1.57913 104.12550 4560 ft 211 kts 320°
2026-05-07 16:47 1.59037 104.11626 4403 ft 207 kts 318°
2026-05-07 16:47 1.59841 104.10481 4186 ft 204 kts 283°
2026-05-07 16:47 1.59763 104.09125 4051 ft 201 kts 244°
2026-05-07 16:48 1.58842 104.08096 3938 ft 203 kts 211°
2026-05-07 16:48 1.57597 104.07406 3836 ft 207 kts 207°
2026-05-07 16:48 1.56286 104.06783 3675 ft 209 kts 204°
2026-05-07 16:48 1.54959 104.06207 3487 ft 206 kts 202°
2026-05-07 16:49 1.53649 104.05654 3289 ft 203 kts 202°
2026-05-07 16:49 1.52354 104.05110 3046 ft 201 kts 202°
2026-05-07 16:49 1.51065 104.04567 2800 ft 200 kts 202°
2026-05-07 16:49 1.49789 104.04030 2543 ft 198 kts 202°
2026-05-07 16:50 1.48528 104.03498 2290 ft 196 kts 202°
2026-05-07 16:50 1.47283 104.02973 2034 ft 193 kts 202°
2026-05-07 16:50 1.46052 104.02454 1796 ft 190 kts 201°
2026-05-07 16:50 1.44879 104.01959 1591 ft 175 kts 201°
2026-05-07 16:51 1.43799 104.01504 1334 ft 159 kts 201°
2026-05-07 16:51 1.42807 104.01086 1161 ft 154 kts 201°
2026-05-07 16:51 1.41817 104.00669 936 ft 153 kts 201°
2026-05-07 16:51 1.40849 104.00261 739 ft 148 kts 201°
2026-05-07 16:52 1.39912 103.99871 532 ft 143 kts 202°
2026-05-07 16:52 1.39004 103.99484 351 ft 142 kts 202°
2026-05-07 16:52 1.38082 103.99101 177 ft 144 kts 202°
2026-05-07 16:52 1.37156 103.98709 38 ft 142 kts 202°
2026-05-07 16:53 1.36345 103.98363 29 ft 104 kts 204°
2026-05-07 16:53 1.35858 103.98157 29 ft 47 kts 203°
2026-05-07 16:53 1.35666 103.98113 29 ft 19 kts 180°
2026-05-07 16:53 1.35586 103.98119 29 ft 9 kts 173°
2026-05-07 16:54 1.35534 103.98147 29 ft 9 kts 128°
2026-05-07 16:54 1.35532 103.98203 29 ft 9 kts 58°
2026-05-07 16:54 1.35598 103.98240 29 ft 17 kts 22°
2026-05-07 16:54 1.35692 103.98281 29 ft 8 kts 30°
2026-05-07 16:55 1.35717 103.98330 29 ft 7 kts 90°
2026-05-07 16:55 1.35723 103.98381 29 ft 8 kts 65°
2026-05-07 16:55 1.35772 103.98413 29 ft 12 kts 22°
2026-05-07 16:55 1.35888 103.98462 29 ft 24 kts 22°
2026-05-07 16:56 1.36024 103.98551 29 ft 24 kts 57°
2026-05-07 16:56 1.36133 103.98665 29 ft 23 kts 23°
2026-05-07 16:56 1.36260 103.98766 29 ft 9 kts 109°
2026-05-07 16:57 1.36248 103.98795 29 ft 2 kts 114°
2026-05-07 16:57 1.36244 103.98803 29 ft 0 kts 115°